This demonstration page uses our WeatherBlox Daily Observations layout. Learn more.

Left ArrowRight Arrow

Hourly Observations for August 1, 2022

Temp ( °F °C ) Dew Point ( °F °C ) Humidity (%) Winds ( mph kmh ) Pressure ( in mb ) Visibility ( mi km ) Precip ( " mm )
12:52 am 00:52 Clear 80 26.7 75 23.9 85 85 NW 7 11 29.89 1012 10 16 0.00 0.00
1:52 am 01:52 Clear 75 23.9 73 22.8 94 94 N 7 11 29.90 1013 10 16 0.00 0.00
2:52 am 02:52 Clear 72 22.2 71 21.7 97 97 N 6 9 29.90 1013 10 16 0.00 0.00
3:52 am 03:52 Clear 72 22.2 70 21.1 94 94 N 7 11 29.92 1013 10 16 0.00 0.00
4:52 am 04:52 Clear 69 20.6 67 19.4 93 93 N 6 9 29.93 1014 10 16 0.00 0.00
5:52 am 05:52 Partly Cloudy 68 20 66 18.9 93 93 N 5 7 29.93 1014 10 16 0.00 0.00
6:52 am 06:52 Mostly Sunny 68 20 66 18.9 93 93 Calm 29.93 1013 10 16 0.00 0.00
7:52 am 07:52 Mostly Cloudy 72 22.2 67 19.4 84 84 Calm 29.94 1014 10 16 0.00 0.00
8:52 am 08:52 Mostly Cloudy 76 24.4 66 18.9 72 72 NNE 3 6 29.94 1014 10 16 0.00 0.00
9:52 am 09:52 Mostly Cloudy 78 25.6 64 17.8 62 62 ESE 6 9 29.94 1014 10 16 0.00 0.00
10:52 am 10:52 Partly Cloudy 82 27.8 65 18.3 56 56 NE 5 7 29.94 1014 10 16 0.00 0.00
11:52 am 11:52 Partly Cloudy 84 28.9 65 18.3 53 53 E 5 7 29.94 1014 10 16 0.00 0.00
12:52 pm 12:52 Partly Cloudy 85 29.4 65 18.3 51 51 VRB 3 6 29.93 1013 10 16 0.00 0.00
1:52 pm 13:52 Partly Cloudy 87 30.6 66 18.9 50 50 SE 5 7 29.91 1013 10 16 0.00 0.00
2:52 pm 14:52 Mostly Sunny 90 32.2 69 20.6 50 50 ESE 8 13 29.89 1012 10 16 0.00 0.00
3:52 pm 15:52 Mostly Sunny 91 32.8 71 21.7 52 52 E 9 15 29.88 1012 10 16 0.00 0.00
4:52 pm 16:52 Mostly Sunny 92 33.3 72 22.2 52 52 E 10 17 29.86 1011 10 16 0.00 0.00
5:52 pm 17:52 Mostly Sunny 92 33.3 74 23.3 56 56 ESE 9 15 29.85 1011 10 16 0.00 0.00
6:52 pm 18:52 Partly Cloudy 90 32.2 75 23.9 62 62 ESE 12 19 29.83 1010 10 16 0.00 0.00
7:52 pm 19:52 Partly Cloudy 89 31.7 76 24.4 65 65 ESE 9 15 29.82 1010 10 16 0.00 0.00
8:52 pm 20:52 Partly Cloudy 87 30.6 76 24.4 70 70 ESE 8 13 29.82 1010 10 16 0.00 0.00
9:52 pm 21:52 Partly Cloudy 86 30 77 25 75 75 SE 5 7 29.83 1010 10 16 0.00 0.00
10:52 pm 22:52 Mostly Cloudy 85 29.4 76 24.4 75 75 SSE 7 11 29.84 1010 10 16 0.00 0.00
11:52 pm 23:52 Mostly Cloudy 83 28.3 76 24.4 79 79 ESE 5 7 29.83 1010 10 16 0.00 0.00

Powered by AerisWeather